Voltar ao catálogo

COSMOS 2251 DEB

AtivoLEO
NORAD 34976·DEBRIS·🇷🇺 Russia

Lançado Jun 16, 1993 de Plesetsk Cosmodrome

Loading…

Próximas Passagens (próximas 24 horas)

TLE

AtualizadoSource: Space-Track

Época: Sep 14, 2026, 15:15 UTC

1 34976U 93036AFF 26257.63555796  .00004702  00000-0  61104-3 0  9996
2 34976  74.0541 124.4230 0043374 102.0898 289.9757 14.80326059923523

Acompanhe COSMOS 2251 DEB em tempo real com AllMySat

Download on the App Store